Weather in Edmundston

Canada     47°21′50″N   68°19′54″W
temp.,
°C
wind,
m/s
gust,
m/s
humid.,
%
clouds,
%
prec.,
mm/h
press.,
hPa
HPBL,
m
1 december, wed
wed123:00−9sw259531 0.0 1011137
02:00−11ssw119862 0.0 101220
05:00−11ssw119790 0.0 101319
08:00−10sse229757 0.0 101453
11:00−4s477891 0.0 1013444
14:00−2s41092100 0.4 1012719
17:00−2wsw612755 0.6 1014934
20:00−7w268730 0.6 1018120
2 december, thu
thu223:00−9ssw2592100 0.0 1019113
02:00−9s1291100 0.0 101952
05:00−9se1296100 0.0 101839
08:00−6se31084100 0.0 1015407
11:00−3se5157780 0.0 1011625
14:000sse61696100 0.4 1005794
17:00+2sse61698100 1.2 9981039
20:00+4s51398100 4.6 994656
3 december, fri
fri323:00+4ssw31098100 0.7 992532
02:00+3wsw499072 0.8 990367
05:00+1wsw41189100 0.0 990663
08:00−3wnw7158178 0.1 993746
11:00−5wnw8157799 0.0 997937
14:00−6wnw9147399 0.0 9991090
17:00−8wnw7137399 0.0 10031102
20:00−9wnw7147082 0.0 10071194
4 december, sat
sat423:00−10wnw7146987 0.0 10091172
02:00−11wnw6136977 0.0 10101165
05:00−12wnw512695 0.0 1012889
08:00−12w411690 0.0 1014650
11:00−9wnw47615 0.0 1016704
14:00−7w355888 0.0 1016983
17:00−9wsw257410 0.0 1018159
20:00−10w37781 0.0 1021357
5 december, sun
sun523:00−10wnw268034 0.0 1023430
02:00−11w27825 0.0 1026380
05:00−11sw12895 0.0 102859
08:00−12sw14905 0.0 1031118
11:00−8sw356882 0.0 1032463
14:00−4ssw366483 0.0 1030852
17:00−5sse3776100 0.0 1029343
20:00−4se41377100 0.0 1026640